Regional Weather Roundup
Issued by NWS

Home | Current Version | Previous Version | Text Only | Print | Product List | Glossary Off
Versions: 1 2 3 4 5 6 7 8 9 10 11 12 13 14 15 16 17 18 19 20 21 22 23 24 25 26 27 28 29 30 31 32 33 34 35 36 37 38 39 40 41 42 43 44 45 46 47 48 49 50

691
ASUS44 KJAN 250510
RWRMS

MISSISSIPPI HOURLY WEATHER ROUNDUP
NATIONAL WEATHER SERVICE JACKSON MS
1100 PM CST WED DEC 24 2014

NOTE: "FAIR: INDICATES FEW OR NO CLOUDS BELOW 12,000 FEET WITH NO
SIGNIFICANT WEATHER AND/OR OBSTRUCTIONS TO VISIBILITY.

MSZ001>002-007>008-010>013-018>021-025>028-034>036-250600-
NORTHWEST MISSISSIPPI

CITY           SKY/WX    TMP DP  RH WIND       PRES   REMARKS
CLARKSDALE     CLOUDY    41  37  87 W8        30.04S
CLEVELAND      CLOUDY    42  37  83 W7        30.05R
GREENWOOD      MOCLDY    41  35  79 W5        30.05S
GREENVILLE     CLOUDY    43  36  76 W9        30.06R
GRENADA        FAIR      37  36  93 CALM      30.04S
OLIVE BRANCH   CLOUDY    39  39 100 W6        30.00R WCI  35
OXFORD         FAIR      37  34  87 W5        30.03R WCI  34
TUNICA         CLOUDY    41  36  81 W7        30.03R
$$

MSZ003>006-009-014>017-022>024-029>033-037>039-250600-
NORTHEAST MISSISSIPPI

CITY           SKY/WX    TMP DP  RH WIND       PRES   REMARKS
COLUMBUS AFB   CLEAR     39  35  84 W6        30.04R
CORINTH        CLOUDY    41  37  87 W7        29.98S
GOLDN TRIANGLE CLOUDY    43  37  81 CALM      30.03R
STARKVILLE     FAIR      37  36  93 CALM      30.04R
TUPELO         MOCLDY    41  35  79 W3        30.01R
$$

MSZ040-058-250600-
CENTRAL MISSISSIPPI

CITY           SKY/WX    TMP DP  RH WIND       PRES   REMARKS
JACKSON INTL   PTCLDY    41  35  79 W5        30.08R
JACKSON HAWKNS CLEAR     40  34  79 W8        30.09R WCI  34
MERIDIAN KEY   CLOUDY    41  36  82 SW5       30.08R
MERIDIAN NAS   CLOUDY    40  35  83 W5        30.07R
RAYMOND        FAIR      37  32  81 MISG      30.09S
VICKSBURG      CLOUDY    43  33  68 W8        30.10S
$$

MSZ059>079-250600-
SOUTH MISSISSIPPI

CITY           SKY/WX    TMP DP  RH WIND       PRES   REMARKS
HATTIESBURG    CLEAR     41  35  79 SW5       30.11R
MCCOMB         CLEAR     40  34  79 NW3       30.10S
NATCHEZ        CLEAR     37  32  81 CALM      30.11F
PINE BELT      CLEAR     37  34  87 SW3       30.09S
$$

MSZ080>082-250600-
COASTAL MISSISSIPPI

CITY           SKY/WX    TMP DP  RH WIND       PRES   REMARKS
BILOXI         PTCLDY    45  36  71 NW6       30.11R
PASCAGOULA     PTCLDY    42  36  79 CALM      30.10R
GULFPORT       CLEAR     41  36  82 W3        30.11R
$$



USA.gov is the U.S. government's official web portal to all federal, state and local government web resources and services.